Time,TemperatureF,DewpointF,PressureIn,WindDirection,WindDirectionDegrees,WindSpeedMPH,WindSpeedGustMPH,Humidity,HourlyPrecipIn,Conditions,Clouds,dailyrainin,SoftwareType,DateUTC
2013-03-25 00:02:00,33.0,31.0,-100.00,East,100,7.0,12.0,91,-99.99,,,-99.99,,2013-03-25 04:02:00,
2013-03-25 00:12:00,33.0,31.0,-100.00,East,85,7.0,12.0,91,-99.99,,,-99.99,,2013-03-25 04:12:00,
2013-03-25 00:22:00,33.0,30.0,-100.00,East,90,8.0,16.0,89,-99.99,,,-99.99,,2013-03-25 04:22:00,
2013-03-25 00:33:00,33.0,30.0,-100.00,East,100,7.0,15.0,88,-99.99,,,-99.99,,2013-03-25 04:33:00,
2013-03-25 00:43:00,33.0,30.0,-100.00,East,90,7.0,12.0,87,-99.99,,,-99.99,,2013-03-25 04:43:00,
2013-03-25 00:52:00,33.0,30.0,-100.00,East,100,6.0,10.0,86,-99.99,,,-99.99,,2013-03-25 04:52:00,
2013-03-25 01:03:00,34.0,30.0,-100.00,ESE,105,4.0,13.0,85,-99.99,,,-99.99,,2013-03-25 05:03:00,
2013-03-25 01:12:00,34.0,30.0,-100.00,East,95,7.0,12.0,85,-99.99,,,-99.99,,2013-03-25 05:12:00,
2013-03-25 01:22:00,34.0,30.0,-100.00,East,85,7.0,12.0,85,-99.99,,,-99.99,,2013-03-25 05:22:00,
2013-03-25 01:32:00,34.0,30.0,-100.00,East,100,8.0,14.0,85,-99.99,,,-99.99,,2013-03-25 05:32:00,
2013-03-25 01:42:00,33.0,30.0,-100.00,East,95,7.0,12.0,86,-99.99,,,-99.99,,2013-03-25 05:42:00,
2013-03-25 01:52:00,33.0,30.0,-100.00,East,90,7.0,12.0,88,-99.99,,,-99.99,,2013-03-25 05:52:00,
2013-03-25 02:02:00,34.0,31.0,-100.00,East,95,6.0,14.0,90,-99.99,,,-99.99,,2013-03-25 06:02:00,
2013-03-25 02:12:00,33.0,31.0,-100.00,East,100,7.0,12.0,92,-99.99,,,-99.99,,2013-03-25 06:12:00,
2013-03-25 02:22:00,33.0,31.0,-100.00,ESE,115,8.0,13.0,94,-99.99,,,-99.99,,2013-03-25 06:22:00,
2013-03-25 02:32:00,33.0,32.0,-100.00,ESE,110,6.0,14.0,95,-99.99,,,-99.99,,2013-03-25 06:32:00,
2013-03-25 02:42:00,33.0,32.0,-100.00,ESE,110,6.0,10.0,96,-99.99,,,-99.99,,2013-03-25 06:42:00,
2013-03-25 02:52:00,33.0,33.0,-100.00,ESE,105,5.0,12.0,98,-99.99,,,-99.99,,2013-03-25 06:52:00,
2013-03-25 03:02:00,33.0,33.0,-100.00,ESE,110,5.0,9.0,99,-99.99,,,-99.99,,2013-03-25 07:02:00,
2013-03-25 03:12:00,33.0,33.0,-100.00,ESE,120,6.0,14.0,99,-99.99,,,-99.99,,2013-03-25 07:12:00,
2013-03-25 03:22:00,32.0,32.0,-100.00,ESE,105,4.0,9.0,99,-99.99,,,-99.99,,2013-03-25 07:22:00,
2013-03-25 03:32:00,32.0,32.0,-100.00,ESE,110,4.0,9.0,99,-99.99,,,-99.99,,2013-03-25 07:32:00,
2013-03-25 03:42:00,32.0,32.0,-100.00,East,90,4.0,7.0,99,-99.99,,,-99.99,,2013-03-25 07:42:00,
2013-03-25 03:52:00,32.0,32.0,-100.00,ESE,110,6.0,10.0,99,-99.99,,,-99.99,,2013-03-25 07:52:00,
2013-03-25 04:03:00,32.0,32.0,-100.00,East,90,6.0,10.0,99,-99.99,,,-99.99,,2013-03-25 08:03:00,
2013-03-25 04:12:00,32.0,32.0,-100.00,ESE,105,9.0,12.0,99,-99.99,,,-99.99,,2013-03-25 08:12:00,
2013-03-25 04:23:00,32.0,32.0,-100.00,East,100,7.0,11.0,99,-99.99,,,-99.99,,2013-03-25 08:23:00,
2013-03-25 04:32:00,32.0,32.0,-100.00,East,100,8.0,13.0,99,-99.99,,,-99.99,,2013-03-25 08:32:00,
2013-03-25 04:43:00,32.0,32.0,-100.00,East,95,8.0,14.0,99,-99.99,,,-99.99,,2013-03-25 08:43:00,
2013-03-25 04:52:00,32.0,32.0,-100.00,East,100,7.0,12.0,99,-99.99,,,-99.99,,2013-03-25 08:52:00,
2013-03-25 05:02:00,32.0,32.0,-100.00,ESE,110,6.0,11.0,99,-99.99,,,-99.99,,2013-03-25 09:02:00,
2013-03-25 05:12:00,32.0,32.0,-100.00,East,90,6.0,10.0,99,-99.99,,,-99.99,,2013-03-25 09:12:00,
2013-03-25 05:22:00,32.0,32.0,-100.00,ESE,110,7.0,14.0,99,-99.99,,,-99.99,,2013-03-25 09:22:00,
2013-03-25 05:33:00,32.0,32.0,-100.00,ESE,105,6.0,11.0,99,-99.99,,,-99.99,,2013-03-25 09:33:00,
2013-03-25 05:43:00,32.0,31.0,-100.00,East,95,6.0,13.0,99,-99.99,,,-99.99,,2013-03-25 09:43:00,
2013-03-25 05:52:00,32.0,31.0,-100.00,East,90,5.0,10.0,99,-99.99,,,-99.99,,2013-03-25 09:52:00,
2013-03-25 06:03:00,31.0,31.0,-100.00,East,85,6.0,9.0,99,-99.99,,,-99.99,,2013-03-25 10:03:00,
2013-03-25 06:12:00,31.0,31.0,-100.00,East,85,6.0,10.0,99,-99.99,,,-99.99,,2013-03-25 10:12:00,
2013-03-25 06:22:00,31.0,31.0,-100.00,East,95,6.0,11.0,99,-99.99,,,-99.99,,2013-03-25 10:22:00,
2013-03-25 06:33:00,31.0,31.0,-100.00,East,95,6.0,11.0,99,-99.99,,,-99.99,,2013-03-25 10:33:00,
2013-03-25 06:42:00,31.0,31.0,-100.00,ENE,70,6.0,11.0,99,-99.99,,,-99.99,,2013-03-25 10:42:00,
2013-03-25 07:03:00,31.0,31.0,-100.00,ENE,70,6.0,12.0,99,-99.99,,,-99.99,,2013-03-25 11:03:00,
2013-03-25 07:12:00,31.0,31.0,-100.00,ENE,60,6.0,12.0,99,-99.99,,,-99.99,,2013-03-25 11:12:00,
2013-03-25 07:23:00,31.0,31.0,-100.00,East,95,5.0,9.0,99,-99.99,,,-99.99,,2013-03-25 11:23:00,
2013-03-25 07:32:00,31.0,31.0,-100.00,East,85,7.0,12.0,99,-99.99,,,-99.99,,2013-03-25 11:32:00,
2013-03-25 07:42:00,31.0,31.0,-100.00,East,95,6.0,10.0,99,-99.99,,,-99.99,,2013-03-25 11:42:00,
2013-03-25 07:52:00,31.0,31.0,-100.00,East,85,5.0,10.0,99,-99.99,,,-99.99,,2013-03-25 11:52:00,
2013-03-25 08:03:00,31.0,31.0,-100.00,East,85,6.0,11.0,99,-99.99,,,-99.99,,2013-03-25 12:03:00,
2013-03-25 08:13:00,31.0,31.0,-100.00,East,85,6.0,12.0,99,-99.99,,,-99.99,,2013-03-25 12:13:00,
2013-03-25 08:23:00,31.0,31.0,-100.00,East,100,6.0,9.0,99,-99.99,,,-99.99,,2013-03-25 12:23:00,
2013-03-25 08:33:00,31.0,31.0,-100.00,East,85,6.0,10.0,99,-99.99,,,-99.99,,2013-03-25 12:33:00,
2013-03-25 08:42:00,31.0,31.0,-100.00,ENE,70,6.0,9.0,99,-99.99,,,-99.99,,2013-03-25 12:42:00,
2013-03-25 08:53:00,31.0,31.0,-100.00,East,95,6.0,9.0,99,-99.99,,,-99.99,,2013-03-25 12:53:00,
2013-03-25 09:03:00,32.0,31.0,-100.00,East,85,6.0,9.0,99,-99.99,,,-99.99,,2013-03-25 13:03:00,
2013-03-25 09:13:00,32.0,32.0,-100.00,ENE,75,4.0,9.0,99,-99.99,,,-99.99,,2013-03-25 13:13:00,
2013-03-25 09:22:00,32.0,32.0,-100.00,ENE,75,4.0,9.0,99,-99.99,,,-99.99,,2013-03-25 13:22:00,
2013-03-25 09:32:00,32.0,32.0,-100.00,ENE,70,4.0,9.0,99,-99.99,,,-99.99,,2013-03-25 13:32:00,
2013-03-25 09:42:00,32.0,32.0,-100.00,ENE,75,5.0,9.0,99,-99.99,,,-99.99,,2013-03-25 13:42:00,
2013-03-25 09:52:00,32.0,32.0,-100.00,East,85,4.0,9.0,99,-99.99,,,-99.99,,2013-03-25 13:52:00,
2013-03-25 10:03:00,33.0,33.0,-100.00,ENE,65,6.0,11.0,99,-99.99,,,-99.99,,2013-03-25 14:03:00,
2013-03-25 10:12:00,33.0,33.0,-100.00,ENE,65,6.0,10.0,99,-99.99,,,-99.99,,2013-03-25 14:12:00,
2013-03-25 10:22:00,33.0,33.0,-100.00,East,85,4.0,9.0,99,-99.99,,,-99.99,,2013-03-25 14:22:00,
2013-03-25 10:32:00,33.0,33.0,-100.00,East,80,4.0,9.0,99,-99.99,,,-99.99,,2013-03-25 14:32:00,
2013-03-25 10:42:00,33.0,33.0,-100.00,East,95,4.0,9.0,99,-99.99,,,-99.99,,2013-03-25 14:42:00,
2013-03-25 10:52:00,33.0,33.0,-100.00,East,85,4.0,8.0,99,-99.99,,,-99.99,,2013-03-25 14:52:00,
2013-03-25 11:03:00,33.0,33.0,-100.00,East,90,6.0,9.0,99,-99.99,,,-99.99,,2013-03-25 15:03:00,
2013-03-25 11:13:00,34.0,34.0,-100.00,ENE,75,5.0,7.0,99,-99.99,,,-99.99,,2013-03-25 15:13:00,
2013-03-25 11:23:00,34.0,34.0,-100.00,ENE,70,4.0,7.0,99,-99.99,,,-99.99,,2013-03-25 15:23:00,
2013-03-25 11:33:00,34.0,34.0,-100.00,ENE,70,4.0,8.0,99,-99.99,,,-99.99,,2013-03-25 15:33:00,
2013-03-25 11:42:00,34.0,34.0,-100.00,ENE,70,5.0,11.0,99,-99.99,,,-99.99,,2013-03-25 15:42:00,
2013-03-25 11:53:00,34.0,34.0,-100.00,ESE,105,4.0,8.0,99,-99.99,,,-99.99,,2013-03-25 15:53:00,
2013-03-25 12:03:00,35.0,35.0,-100.00,East,95,4.0,6.0,99,-99.99,,,-99.99,,2013-03-25 16:03:00,
2013-03-25 12:12:00,35.0,35.0,-100.00,East,85,5.0,9.0,99,-99.99,,,-99.99,,2013-03-25 16:12:00,
2013-03-25 12:23:00,35.0,35.0,-100.00,East,90,4.0,10.0,99,-99.99,,,-99.99,,2013-03-25 16:23:00,
2013-03-25 12:33:00,35.0,35.0,-100.00,ENE,70,3.0,7.0,99,-99.99,,,-99.99,,2013-03-25 16:33:00,
2013-03-25 12:43:00,35.0,35.0,-100.00,East,85,4.0,9.0,99,-99.99,,,-99.99,,2013-03-25 16:43:00,
2013-03-25 12:52:00,35.0,35.0,-100.00,East,90,4.0,9.0,99,-99.99,,,-99.99,,2013-03-25 16:52:00,
2013-03-25 13:03:00,35.0,35.0,-100.00,ENE,75,4.0,9.0,99,-99.99,,,-99.99,,2013-03-25 17:03:00,
2013-03-25 13:12:00,35.0,35.0,-100.00,ENE,70,4.0,6.0,99,-99.99,,,-99.99,,2013-03-25 17:12:00,
2013-03-25 13:23:00,36.0,36.0,-100.00,ENE,65,5.0,8.0,99,-99.99,,,-99.99,,2013-03-25 17:23:00,
2013-03-25 13:33:00,35.0,35.0,-100.00,NE,55,6.0,11.0,99,-99.99,,,-99.99,,2013-03-25 17:33:00,
2013-03-25 13:42:00,35.0,35.0,-100.00,East,80,7.0,9.0,99,-99.99,,,-99.99,,2013-03-25 17:42:00,
2013-03-25 13:52:00,35.0,35.0,-100.00,NE,50,5.0,9.0,99,-99.99,,,-99.99,,2013-03-25 17:52:00,
2013-03-25 14:03:00,35.0,35.0,-100.00,NE,55,7.0,9.0,99,-99.99,,,-99.99,,2013-03-25 18:03:00,
2013-03-25 14:12:00,35.0,35.0,-100.00,NE,45,6.0,9.0,99,-99.99,,,-99.99,,2013-03-25 18:12:00,
2013-03-25 14:23:00,34.0,34.0,-100.00,NE,55,9.0,12.0,99,-99.99,,,-99.99,,2013-03-25 18:23:00,
2013-03-25 14:33:00,34.0,34.0,-100.00,NE,55,7.0,12.0,99,-99.99,,,-99.99,,2013-03-25 18:33:00,
2013-03-25 14:42:00,34.0,34.0,-100.00,NE,50,9.0,13.0,99,-99.99,,,-99.99,,2013-03-25 18:42:00,
2013-03-25 14:52:00,34.0,34.0,-100.00,NE,55,9.0,12.0,99,-99.99,,,-99.99,,2013-03-25 18:52:00,
2013-03-25 15:03:00,34.0,34.0,-100.00,NE,55,9.0,14.0,99,-99.99,,,-99.99,,2013-03-25 19:03:00,
2013-03-25 15:13:00,34.0,34.0,-100.00,NE,55,11.0,14.0,99,-99.99,,,-99.99,,2013-03-25 19:13:00,
2013-03-25 15:23:00,34.0,34.0,-100.00,ENE,70,8.0,12.0,99,-99.99,,,-99.99,,2013-03-25 19:23:00,
2013-03-25 15:33:00,34.0,34.0,-100.00,NE,55,10.0,12.0,99,-99.99,,,-99.99,,2013-03-25 19:33:00,
2013-03-25 15:42:00,34.0,34.0,-100.00,NE,55,10.0,16.0,99,-99.99,,,-99.99,,2013-03-25 19:42:00,
2013-03-25 15:52:00,34.0,34.0,-100.00,NE,55,10.0,14.0,99,-99.99,,,-99.99,,2013-03-25 19:52:00,
2013-03-25 16:02:00,34.0,34.0,-100.00,NE,55,10.0,16.0,99,-99.99,,,-99.99,,2013-03-25 20:02:00,
2013-03-25 16:12:00,34.0,34.0,-100.00,NE,55,11.0,15.0,99,-99.99,,,-99.99,,2013-03-25 20:12:00,
2013-03-25 16:22:00,34.0,34.0,-100.00,ENE,60,9.0,16.0,99,-99.99,,,-99.99,,2013-03-25 20:22:00,
2013-03-25 16:32:00,34.0,34.0,-100.00,ENE,65,9.0,17.0,99,-99.99,,,-99.99,,2013-03-25 20:32:00,
2013-03-25 16:42:00,34.0,34.0,-100.00,ENE,65,7.0,16.0,99,-99.99,,,-99.99,,2013-03-25 20:42:00,
2013-03-25 16:52:00,34.0,34.0,-100.00,NE,50,7.0,12.0,99,-99.99,,,-99.99,,2013-03-25 20:52:00,
2013-03-25 17:03:00,34.0,34.0,-100.00,ENE,60,9.0,13.0,99,-99.99,,,-99.99,,2013-03-25 21:03:00,
2013-03-25 17:12:00,34.0,34.0,-100.00,NE,55,9.0,12.0,99,-99.99,,,-99.99,,2013-03-25 21:12:00,
2013-03-25 17:22:00,34.0,34.0,-100.00,NE,50,9.0,13.0,99,-99.99,,,-99.99,,2013-03-25 21:22:00,
2013-03-25 17:33:00,34.0,34.0,-100.00,NE,45,7.0,14.0,99,-99.99,,,-99.99,,2013-03-25 21:33:00,
2013-03-25 17:43:00,33.0,33.0,-100.00,NE,55,10.0,13.0,99,-99.99,,,-99.99,,2013-03-25 21:43:00,
2013-03-25 17:52:00,33.0,33.0,-100.00,NE,55,9.0,14.0,99,-99.99,,,-99.99,,2013-03-25 21:52:00,
2013-03-25 18:03:00,33.0,33.0,-100.00,NE,55,9.0,14.0,99,-99.99,,,-99.99,,2013-03-25 22:03:00,
2013-03-25 18:12:00,33.0,33.0,-100.00,NE,55,10.0,15.0,99,-99.99,,,-99.99,,2013-03-25 22:12:00,
2013-03-25 18:23:00,33.0,33.0,-100.00,ENE,65,9.0,19.0,99,-99.99,,,-99.99,,2013-03-25 22:23:00,
2013-03-25 18:33:00,33.0,33.0,-100.00,NE,55,9.0,13.0,99,-99.99,,,-99.99,,2013-03-25 22:33:00,
2013-03-25 18:42:00,33.0,33.0,-100.00,NE,55,9.0,15.0,99,-99.99,,,-99.99,,2013-03-25 22:42:00,
2013-03-25 18:52:00,33.0,33.0,-100.00,NE,50,7.0,12.0,99,-99.99,,,-99.99,,2013-03-25 22:52:00,
2013-03-25 19:03:00,33.0,33.0,-100.00,NE,45,7.0,12.0,99,-99.99,,,-99.99,,2013-03-25 23:03:00,
2013-03-25 19:12:00,33.0,33.0,-100.00,NE,55,7.0,12.0,99,-99.99,,,-99.99,,2013-03-25 23:12:00,
2013-03-25 19:23:00,33.0,33.0,-100.00,NE,55,5.0,12.0,99,-99.99,,,-99.99,,2013-03-25 23:23:00,
2013-03-25 19:32:00,33.0,33.0,-100.00,NE,50,7.0,12.0,99,-99.99,,,-99.99,,2013-03-25 23:32:00,
2013-03-25 19:43:00,33.0,33.0,-100.00,NE,45,7.0,14.0,99,-99.99,,,-99.99,,2013-03-25 23:43:00,
2013-03-25 19:52:00,33.0,33.0,-100.00,NE,50,9.0,13.0,99,-99.99,,,-99.99,,2013-03-25 23:52:00,
2013-03-25 20:02:00,33.0,33.0,-100.00,ENE,60,8.0,12.0,99,-99.99,,,-99.99,,2013-03-26 00:02:00,
2013-03-25 20:12:00,33.0,33.0,-100.00,NE,35,6.0,12.0,99,-99.99,,,-99.99,,2013-03-26 00:12:00,
2013-03-25 20:22:00,33.0,33.0,-100.00,NE,45,7.0,11.0,99,-99.99,,,-99.99,,2013-03-26 00:22:00,
2013-03-25 20:32:00,33.0,33.0,-100.00,NE,40,7.0,12.0,99,-99.99,,,-99.99,,2013-03-26 00:32:00,
2013-03-25 20:42:00,32.0,32.0,-100.00,NE,55,9.0,13.0,99,-99.99,,,-99.99,,2013-03-26 00:42:00,
2013-03-25 20:52:00,32.0,32.0,-100.00,NE,50,7.0,12.0,99,-99.99,,,-99.99,,2013-03-26 00:52:00,
2013-03-25 21:02:00,32.0,32.0,-100.00,NE,40,7.0,14.0,99,-99.99,,,-99.99,,2013-03-26 01:02:00,
2013-03-25 21:12:00,32.0,32.0,-100.00,NE,55,7.0,11.0,99,-99.99,,,-99.99,,2013-03-26 01:12:00,
2013-03-25 21:22:00,32.0,32.0,-100.00,NNE,30,6.0,11.0,99,-99.99,,,-99.99,,2013-03-26 01:22:00,
2013-03-25 21:32:00,32.0,32.0,-100.00,NE,55,4.0,8.0,99,-99.99,,,-99.99,,2013-03-26 01:32:00,
2013-03-25 21:42:00,32.0,32.0,-100.00,NE,40,4.0,7.0,99,-99.99,,,-99.99,,2013-03-26 01:42:00,
2013-03-25 21:52:00,32.0,32.0,-100.00,NE,50,4.0,6.0,99,-99.99,,,-99.99,,2013-03-26 01:52:00,
2013-03-25 22:02:00,32.0,32.0,-100.00,NE,55,2.0,6.0,99,-99.99,,,-99.99,,2013-03-26 02:02:00,
2013-03-25 22:12:00,32.0,32.0,-100.00,ENE,60,2.0,4.0,99,-99.99,,,-99.99,,2013-03-26 02:12:00,
2013-03-25 22:22:00,32.0,32.0,-100.00,North,0,4.0,6.0,99,-99.99,,,-99.99,,2013-03-26 02:22:00,
2013-03-25 22:32:00,32.0,32.0,-100.00,North,0,3.0,5.0,99,-99.99,,,-99.99,,2013-03-26 02:32:00,
2013-03-25 22:42:00,32.0,32.0,-100.00,NNW,345,3.0,6.0,99,-99.99,,,-99.99,,2013-03-26 02:42:00,
2013-03-25 22:52:00,32.0,32.0,-100.00,NNW,330,2.0,4.0,99,-99.99,,,-99.99,,2013-03-26 02:52:00,
2013-03-25 23:02:00,32.0,32.0,-100.00,NNW,340,2.0,5.0,99,-99.99,,,-99.99,,2013-03-26 03:02:00,
2013-03-25 23:12:00,32.0,32.0,-100.00,North,0,2.0,3.0,99,-99.99,,,-99.99,,2013-03-26 03:12:00,
2013-03-25 23:22:00,32.0,32.0,-100.00,North,0,2.0,5.0,99,-99.99,,,-99.99,,2013-03-26 03:22:00,
2013-03-25 23:34:00,32.0,32.0,-100.00,North,0,2.0,4.0,99,-99.99,,,-99.99,,2013-03-26 03:34:00,
2013-03-25 23:42:00,32.0,32.0,-100.00,North,0,2.0,4.0,99,-99.99,,,-99.99,,2013-03-26 03:42:00,
2013-03-25 23:52:00,32.0,32.0,-100.00,North,10,2.0,4.0,99,-99.99,,,-99.99,,2013-03-26 03:52:00,